User: anonymous   Login
Location: Peralejo
(40.5415°N, 4.1259°W)
Time: 23:32:57
(UTC+00:00)
Language:

CZ-4C R/B - Orbit

View from above orbital plane
View from above orbital plane
View from above satellite
View from above satellite

Ground track
Ground track

The orbit data is extracted from the following two-line orbital elements,

1 36416U 10009D   24175.49398846  .00000550  00000-0  17540-3 0  9990
2 36416  63.3987 207.5828 0636045 358.9516   1.0147 13.70798964715281
Epoch (UTC): 23 June 2024 11:51:20
Eccentricity: 0.0636045
inclination: 63.3987°
perigee height: 527 km
apogee height: 1466 km
right ascension of ascending node: 207.5828°
argument of perigee: 358.9516°
revolutions per day: 13.70798964
mean anomaly at epoch: 1.0147°
orbit number at epoch: 71528

The dashed part of the orbit path shows where the satellite is in the earth's shadow,  

DLR